Terminal Aerodrome Forecast
Issued by NWS Salt Lake City, UT

Home | Current Version | Previous Version | Text Only | Print | Product List | Glossary On
Versions: 1 2 3 4 5 6 7 8 9 10 11 12 13 14 15 16 17 18 19 20 21 22 23 24 25 26 27 28 29 30 31 32 33 34 35 36 37 38 39 40 41 42 43 44 45 46 47 48 49 50
000
FTUS45 KSLC 200533
TAFSLC
TAF
KSLC 200533Z 2006/2112 15005KT P6SM VCSH SCT040 BKN070
      TEMPO 2006/2010 33006KT 6SM -RASN SCT020 BKN050
     FM201000 15005KT P6SM VCSH SCT020 BKN040
     FM201800 16007KT P6SM VCSH SCT030 BKN070
     FM210300 14006KT P6SM VCSH SCT020 BKN050=

USA.gov is the U.S. government's official web portal to all federal, state and local government web resources and services.